Montevideo, MN

9:00 AM CST on December 05, 2016 (GMT -0600)
Montevideo-Chippewa County

Weather History for KMVE - November, 2011

Change the Weather History Date:

Monday, November 28, 2011

  Actual Average Record
Temperature  
Mean Temperature 34 °F -  
Max Temperature 48 °F 29 °F 51 °F (2002)
Min Temperature 21 °F 12 °F -16 °F (1993)
Degree Days  
Heating Degree Days 30    
Moisture  
Dew Point 20 °F    
Average Humidity 62    
Maximum Humidity 86    
Minimum Humidity 27    
Precipitation  
Precipitation 0.00 in - - ()
Sea Level Pressure  
Sea Level Pressure 30.05 in    
Wind  
Wind Speed 9 mph (SW)    
Max Wind Speed 16 mph    
Max Gust Speed 21 mph    
Visibility 10 miles    
Events      
Averages and records for this station are not official NWS values.
T = Trace of Precipitation, MM = Missing Value Source: NWS Daily Summary

Daily Weather History Graph

Daily Weather History Graph

Search for Another Location

Airport or City:

Trip Planner

Search our weather history database for the weather conditions in past years. The results will help you decide how hot, cold, wet, or windy it might be!

Date:

Astronomy

Nov. 28, 2011 Rise Set
Actual Time 7:36 AM CST 4:44 PM CST
Civil Twilight 7:04 AM CST 5:17 PM CST
Nautical Twilight 6:27 AM CST 5:53 PM CST
Astronomical Twilight 5:52 AM CST 6:28 PM CST
Moon 10:45 AM CST (11/28) 8:34 PM CST (11/28)
Length of Visible Light 10h 13m
Length of Day
9h 07m
Waxing Crescent, 16% of the Moon is Illuminated
Nov 28
Waxing Crescent
Dec 2
First Quarter
Dec 10
Full
Dec 17
Last Quarter
Dec 24
New

Hourly Weather History & Observations

Time (CST) Temp. Windchill Dew Point Humidity Pressure Visibility Wind Dir Wind Speed Gust Speed Precip Events Conditions
12:14 AM 21.2 °F 11.7 °F 17.6 °F 86% 30.10 in 10.0 mi South 8.1 mph - N/A   Clear
12:34 AM 21.2 °F 10.9 °F 17.6 °F 86% 30.08 in 10.0 mi South 9.2 mph - N/A   Clear
12:54 AM 23.0 °F 12.4 °F 17.6 °F 80% 30.07 in 10.0 mi SSW 10.4 mph - N/A   Clear
1:14 AM 23.0 °F 13.1 °F 17.6 °F 80% 30.07 in 10.0 mi SSW 9.2 mph - N/A   Clear
1:33 AM 23.0 °F 12.4 °F 17.6 °F 80% 30.06 in 10.0 mi SSW 10.4 mph - N/A   Clear
1:54 AM 23.0 °F 13.1 °F 17.6 °F 80% 30.06 in 10.0 mi SSW 9.2 mph - N/A   Clear
2:14 AM 23.0 °F 13.9 °F 17.6 °F 80% 30.07 in 10.0 mi SSW 8.1 mph - N/A   Clear
2:34 AM 21.2 °F 12.6 °F 17.6 °F 86% 30.08 in 10.0 mi SSW 6.9 mph - N/A   Clear
2:54 AM 21.2 °F 10.9 °F 15.8 °F 80% 30.07 in 10.0 mi South 9.2 mph - N/A   Clear
3:14 AM 21.2 °F 10.1 °F 15.8 °F 80% 30.05 in 10.0 mi South 10.4 mph - N/A   Clear
3:35 AM 21.2 °F 10.1 °F 17.6 °F 86% 30.04 in 10.0 mi SSW 10.4 mph - N/A   Clear
3:54 AM 23.0 °F 13.9 °F 17.6 °F 80% 30.03 in 10.0 mi SSW 8.1 mph - N/A   Clear
4:14 AM 21.2 °F 10.9 °F 17.6 °F 86% 30.02 in 10.0 mi SSW 9.2 mph - N/A   Clear
4:34 AM 23.0 °F 13.1 °F 17.6 °F 80% 30.03 in 10.0 mi SSW 9.2 mph - N/A   Clear
4:54 AM 23.0 °F 13.1 °F 17.6 °F 80% 30.02 in 10.0 mi South 9.2 mph - N/A   Clear
5:14 AM 23.0 °F 12.4 °F 17.6 °F 80% 30.01 in 10.0 mi South 10.4 mph - N/A   Clear
5:34 AM 23.0 °F 12.4 °F 15.8 °F 74% 30.00 in 10.0 mi SSW 10.4 mph - N/A   Clear
5:54 AM 23.0 °F 13.1 °F 15.8 °F 74% 29.99 in 10.0 mi South 9.2 mph - N/A   Clear
6:14 AM 23.0 °F 12.4 °F 15.8 °F 74% 29.99 in 10.0 mi South 10.4 mph - N/A   Clear
6:34 AM 23.0 °F 13.1 °F 15.8 °F 74% 29.98 in 10.0 mi SSW 9.2 mph - N/A   Clear
6:54 AM 23.0 °F 12.4 °F 15.8 °F 74% 29.97 in 10.0 mi South 10.4 mph 16.1 mph N/A   Clear
7:14 AM 24.8 °F 14.6 °F 15.8 °F 69% 29.97 in 10.0 mi SSW 10.4 mph 16.1 mph N/A   Clear
7:54 AM 24.8 °F 16.9 °F 15.8 °F 69% 29.98 in 10.0 mi SSW 6.9 mph - N/A   Clear
8:14 AM 24.8 °F 15.3 °F 15.8 °F 69% 29.98 in 10.0 mi SSW 9.2 mph - N/A   Clear
8:34 AM 26.6 °F 16.8 °F 17.6 °F 69% 29.97 in 10.0 mi SSW 10.4 mph - N/A   Clear
8:54 AM 26.6 °F 17.5 °F 17.6 °F 69% 29.97 in 10.0 mi SSW 9.2 mph - N/A   Clear
9:14 AM 28.4 °F 19.7 °F 17.6 °F 64% 29.98 in 10.0 mi SSW 9.2 mph - N/A   Clear
9:34 AM 30.2 °F 21.9 °F 17.6 °F 60% 29.97 in 10.0 mi SSW 9.2 mph - N/A   Clear
9:54 AM 30.2 °F 22.6 °F 17.6 °F 60% 29.98 in 10.0 mi SSW 8.1 mph - N/A   Clear
10:14 AM 32.0 °F 26.4 °F 17.6 °F 55% 29.98 in 10.0 mi SW 5.8 mph - N/A   Clear
10:33 AM 33.8 °F 30.8 °F 19.4 °F 56% 29.99 in 10.0 mi SSW 3.5 mph - N/A   Clear
10:54 AM 35.6 °F 30.7 °F 19.4 °F 52% 29.99 in 10.0 mi SW 5.8 mph - N/A   Clear
11:14 AM 37.4 °F 32.1 °F 19.4 °F 48% 29.98 in 10.0 mi SW 6.9 mph - N/A   Clear
11:34 AM 42.8 °F 37.0 °F 17.6 °F 36% 29.98 in 10.0 mi WSW 10.4 mph - N/A   Clear
11:54 AM 42.8 °F 37.5 °F 14.0 °F 31% 29.98 in 10.0 mi West 9.2 mph - N/A   Clear
12:14 PM 44.6 °F 40.7 °F 15.8 °F 31% 29.98 in 10.0 mi WSW 6.9 mph - N/A   Clear
1:14 PM 46.4 °F 44.3 °F 15.8 °F 29% 29.99 in 10.0 mi West 4.6 mph - N/A   Clear
1:33 PM 48.2 °F - 15.8 °F 27% 30.00 in 10.0 mi NW 3.5 mph - N/A   Clear
1:54 PM 48.2 °F - 15.8 °F 27% 30.01 in 10.0 mi NW 5.8 mph - N/A   Clear
2:14 PM 48.2 °F - 17.6 °F 30% 30.01 in 10.0 mi North 9.2 mph - N/A   Clear
2:54 PM 48.2 °F - 21.2 °F 34% 30.04 in 10.0 mi North 10.4 mph - N/A   Clear
3:14 PM 48.2 °F - 23.0 °F 37% 30.05 in 10.0 mi North 9.2 mph - N/A   Clear
3:33 PM 48.2 °F - 23.0 °F 37% 30.06 in 10.0 mi North 9.2 mph - N/A   Clear
3:54 PM 48.2 °F - 24.8 °F 40% 30.07 in 10.0 mi North 11.5 mph - N/A   Clear
4:14 PM 46.4 °F 41.5 °F 26.6 °F 46% 30.09 in 10.0 mi North 10.4 mph - N/A   Clear
4:33 PM 46.4 °F 41.1 °F 26.6 °F 46% 30.10 in 10.0 mi North 11.5 mph - N/A   Clear
4:54 PM 44.6 °F 39.7 °F 26.6 °F 49% 30.11 in 10.0 mi NNE 9.2 mph - N/A   Clear
5:14 PM 42.8 °F 38.0 °F 26.6 °F 53% 30.12 in 10.0 mi North 8.1 mph - N/A   Clear
5:33 PM 42.8 °F 39.3 °F 26.6 °F 53% 30.13 in 10.0 mi North 5.8 mph - N/A   Clear
5:54 PM 42.8 °F 37.0 °F 26.6 °F 53% 30.15 in 10.0 mi North 10.4 mph 20.7 mph N/A   Clear
6:14 PM 42.8 °F 35.1 °F 28.4 °F 57% 30.15 in 10.0 mi NNE 16.1 mph - N/A   Clear
6:34 PM 41.0 °F 33.1 °F 26.6 °F 57% 30.15 in 10.0 mi NNE 15.0 mph - N/A   Clear
6:54 PM 39.2 °F 31.2 °F 26.6 °F 61% 30.17 in 10.0 mi NNE 13.8 mph - N/A   Clear
7:14 PM 39.2 °F 32.0 °F 28.4 °F 65% 30.18 in 10.0 mi NNE 11.5 mph - N/A   Clear
7:33 PM 37.4 °F 30.8 °F 28.4 °F 70% 30.18 in 10.0 mi North 9.2 mph - N/A   Clear
8:14 PM 37.4 °F 28.9 °F 28.4 °F 70% 30.21 in 10.0 mi NNE 13.8 mph - N/A   Clear
8:33 PM 37.4 °F 29.3 °F 28.4 °F 70% 30.21 in 10.0 mi North 12.7 mph 17.3 mph N/A   Clear
8:54 PM 35.6 °F 28.6 °F 28.4 °F 75% 30.22 in 10.0 mi North 9.2 mph - N/A   Clear
9:14 PM 35.6 °F 28.6 °F 28.4 °F 75% 30.23 in 10.0 mi North 9.2 mph - N/A   Clear
9:33 PM 35.6 °F 28.0 °F 28.4 °F 75% 30.23 in 10.0 mi North 10.4 mph - N/A   Clear
9:54 PM 35.6 °F 27.1 °F 26.6 °F 70% 30.24 in 10.0 mi North 12.7 mph - N/A   Clear
10:33 PM 33.8 °F 25.8 °F 26.6 °F 75% 30.24 in 10.0 mi North 10.4 mph - N/A   Clear
11:14 PM 30.2 °F 22.6 °F 24.8 °F 80% 30.26 in 10.0 mi North 8.1 mph - N/A   Clear
11:34 PM 30.2 °F 21.9 °F 24.8 °F 80% 30.27 in 10.0 mi North 9.2 mph - N/A   Clear
11:54 PM 30.2 °F 22.6 °F 24.8 °F 80% 30.28 in 10.0 mi NNW 8.1 mph - N/A   Clear